Location: ?????
(30.2541°N, 31.0910°E)
Time: 07:18:55
(UTC+00:00)

CZ-2D R/B - Pass Details

Date: 27 September 2022
Orbit: 551 x 632 km, 98.0° (Epoch: 28 November)

Event Time Altitude Azimuth Distance (km) Brightness Sun altitude
Rises 02:05:47 0° 8° (N) 2,727 7.1 -22.5°
Reaches altitude 10° 02:07:54 10° 5° (N) 1,833 6.2 -22.0°
Enters shadow 02:11:45 65° 291° (WNW) 615 3.2 -21.2°
